EW6449 Weather Reports


Display with metric or nautical units.
time (UTC)temp
F
wind
direction
speed
MPH
gust
MPH
rain 1hr
in
rain 24hr
in
rain mn
in
humidity
%
barometer
mb
20260502130526 71 18 0.0 5.0 0.00 0.00 0.00 29 1007.5
20260502123509 66 19 2.0 2.0 0.00 0.00 0.00 35 1006.9
20260502123005 67 23 2.0 2.0 0.00 0.00 0.00 34 1007.2
20260502122502 67 0 1.0 1.0 0.00 0.00 0.00 34 1006.9
20260502121959 67 29 0.0 2.0 0.00 0.00 0.00 34 1006.9
20260502121456 68 29 1.0 2.0 0.00 0.00 0.00 33 1006.8
20260502120954 68 40 2.0 2.0 0.00 0.00 0.00 31 1006.7
20260502120450 69 45 2.0 2.0 0.00 0.00 0.00 31 1006.7
20260502115445 70 23 0.0 1.0 0.00 0.00 0.00 30 1006.7
20260502114940 71 29 0.0 2.0 0.00 0.00 0.00 29 1006.8
20260502114437 72 32 2.0 3.0 0.00 0.00 0.00 27 1006.5
20260502113935 72 29 2.0 4.0 0.00 0.00 0.00 27 1006.4
20260502113432 72 26 2.0 3.0 0.00 0.00 0.00 27 1006.5
20260502112931 72 36 2.0 6.0 0.00 0.00 0.00 27 1006.3
20260502112428 72 30 2.0 4.0 0.00 0.00 0.00 28 1006.5
20260502111925 72 7 2.0 4.0 0.00 0.00 0.00 27 1006.4
20260502111422 71 0 3.0 3.0 0.00 0.00 0.00 28 1006.4
20260502110920 71 26 1.0 3.0 0.00 0.00 0.00 28 1006.5
20260502110417 71 22 2.0 3.0 0.00 0.00 0.00 28 1006.5
20260502105914 71 7 2.0 3.0 0.00 0.00 0.00 28 1006.5
20260502105411 71 30 2.0 3.0 0.00 0.00 0.00 28 1006.6
20260502104909 72 15 2.0 3.0 0.00 0.00 0.00 27 1006.5
20260502104406 72 9 2.0 3.0 0.00 0.00 0.00 27 1006.4
20260502103904 71 0 2.0 3.0 0.00 0.00 0.00 28 1006.3
20260502103401 71 16 2.0 2.0 0.00 0.00 0.00 29 1006.4
20260502102858 71 356 2.0 3.0 0.00 0.00 0.00 28 1006.3
20260502102355 71 4 2.0 2.0 0.00 0.00 0.00 29 1006.3
20260502101852 71 36 2.0 3.0 0.00 0.00 0.00 29 1006.3
20260502101350 72 14 2.0 2.0 0.00 0.00 0.00 29 1006.2
20260502100848 73 12 2.0 3.0 0.00 0.00 0.00 27 1006.4
20260502100347 73 16 2.0 3.0 0.00 0.00 0.00 27 1006.3
20260502091321 74 28 2.0 4.0 0.00 0.00 0.00 26 1005.9
20260502090819 74 41 2.0 4.0 0.00 0.00 0.00 25 1005.9
20260502090315 74 24 2.0 3.0 0.00 0.00 0.00 25 1006.0
20260502071210 75 20 3.0 3.0 0.00 0.00 0.00 26 1005.6
20260502070709 75 28 2.0 5.0 0.00 0.00 0.00 26 1005.5
20260502070206 75 14 4.0 4.0 0.00 0.00 0.00 26 1005.4
20260502065704 74 3 3.0 5.0 0.00 0.00 0.00 26 1005.5
20260502065201 74 2 3.0 4.0 0.00 0.00 0.00 26 1005.2
20260502064700 73 16 3.0 3.0 0.00 0.00 0.00 27 1005.3
20260502064157 73 16 2.0 2.0 0.00 0.00 0.00 29 1005.3
20260502063655 73 342 2.0 2.0 0.00 0.00 0.00 28 1005.2
20260502063152 73 12 1.0 2.0 0.00 0.00 0.00 27 1005.2
20260502062649 73 12 1.0 2.0 0.00 0.00 0.00 28 1005.2
20260502062147 74 20 1.0 2.0 0.00 0.00 0.00 28 1005.4
20260502061645 75 0 2.0 3.0 0.00 0.00 0.00 28 1005.3
20260502061142 76 29 1.0 2.0 0.00 0.00 0.00 26 1004.9
20260502060642 75 29 0.0 2.0 0.00 0.00 0.00 26 1004.9
20260502060139 75 26 1.0 2.0 0.00 0.00 0.00 26 1004.7
20260502055637 73 29 1.0 2.0 0.00 0.00 0.00 30 1004.7
20260502055135 73 6 1.0 2.0 0.00 0.00 0.00 30 1004.6
20260502054634 73 18 1.0 2.0 0.00 0.00 0.00 30 1004.6
20260502054131 74 16 2.0 2.0 0.00 0.00 0.00 28 1004.7
20260502053628 73 11 2.0 2.0 0.00 0.00 0.00 30 1004.9
20260502053125 74 6 1.0 1.0 0.00 0.00 0.00 29 1004.7
20260502052623 74 5 1.0 2.0 0.00 0.00 0.00 28 1004.7
20260502052121 74 18 1.0 2.0 0.00 0.00 0.00 28 1004.7
20260502051619 74 14 1.0 2.0 0.00 0.00 0.00 27 1004.4
20260502051117 74 11 2.0 2.0 0.00 0.00 0.00 28 1004.5
20260502050613 74 15 1.0 2.0 0.00 0.00 0.00 28 1004.7
20260502050110 75 12 1.0 2.0 0.00 0.00 0.00 27 1004.5
20260502045606 75 5 1.0 2.0 0.00 0.00 0.00 27 1004.3
20260502045104 75 23 2.0 2.0 0.00 0.00 0.00 26 1004.3
20260502044600 76 15 2.0 2.0 0.00 0.00 0.00 26 1004.4
20260502044057 76 10 2.0 2.0 0.00 0.00 0.00 26 1004.4
20260502043554 77 10 2.0 2.0 0.00 0.00 0.00 26 1004.5
20260502043050 78 10 2.0 2.0 0.00 0.00 0.00 26 1004.4
20260502042545 78 26 1.0 1.0 0.00 0.00 0.00 25 1004.2
20260502042043 79 20 1.0 2.0 0.00 0.00 0.00 25 1004.5
20260502041541 79 23 1.0 1.0 0.00 0.00 0.00 25 1004.2
20260502041037 79 14 0.0 1.0 0.00 0.00 0.00 25 1004.1
20260502040534 78 23 1.0 2.0 0.00 0.00 0.00 25 1004.0
20260502040031 79 20 1.0 2.0 0.00 0.00 0.00 25 1003.9
20260502035527 79 20 1.0 2.0 0.00 0.00 0.00 25 1004.1
20260502035025 79 12 1.0 2.0 0.00 0.00 0.00 26 1004.0
20260502034522 80 29 1.0 1.0 0.00 0.00 0.00 25 1003.8
20260502034021 79 20 1.0 1.0 0.00 0.00 0.00 25 1004.0
20260502033519 78 18 1.0 2.0 0.00 0.00 0.00 26 1004.0
20260502033015 79 16 2.0 2.0 0.00 0.00 0.00 26 1003.8
20260502032511 80 5 2.0 2.0 0.00 0.00 0.00 26 1003.8
20260502032008 80 20 1.0 2.0 0.00 0.00 0.00 25 1003.7
20260502031506 81 29 2.0 2.0 0.00 0.00 0.00 24 1003.7
20260502031004 81 36 2.0 2.0 0.00 0.00 0.00 23 1003.4
20260502030502 82 29 2.0 2.0 0.00 0.00 0.00 23 1003.4
20260502030000 83 23 1.0 2.0 0.00 0.00 0.00 23 1003.5
20260502025457 83 15 0.0 2.0 0.00 0.00 0.00 22 1003.3
20260502024955 83 8 1.0 2.0 0.00 0.00 0.00 22 1003.2
20260502024452 83 18 2.0 2.0 0.00 0.00 0.00 22 1003.1
20260502023950 84 82 0.0 2.0 0.00 0.00 0.00 22 1003.1
20260502023448 84 35 0.0 4.0 0.00 0.00 0.00 22 1003.1
20260502022945 84 11 0.0 2.0 0.00 0.00 0.00 21 1003.1
20260502022441 85 82 0.0 2.0 0.00 0.00 0.00 21 1003.0
20260502021938 84 20 1.0 2.0 0.00 0.00 0.00 22 1002.9
20260502021436 85 90 0.0 2.0 0.00 0.00 0.00 21 1002.9
20260502020933 85 77 0.0 2.0 0.00 0.00 0.00 21 1003.1
20260502020431 85 23 0.0 2.0 0.00 0.00 0.00 20 1002.7
20260502015927 86 40 0.0 2.0 0.00 0.00 0.00 20 1002.8
20260502015425 86 23 1.0 2.0 0.00 0.00 0.00 21 1002.9
20260502014921 86 26 0.0 2.0 0.00 0.00 0.00 21 1002.8
20260502014419 86 23 0.0 2.0 0.00 0.00 0.00 19 1002.8
20260502013915 86 29 0.0 2.0 0.00 0.00 0.00 19 1002.7
20260502013410 86 26 1.0 2.0 0.00 0.00 0.00 20 1002.8
20260502012907 86 60 1.0 2.0 0.00 0.00 0.00 20 1002.5
20260502012405 87 60 1.0 3.0 0.00 0.00 0.00 20 1002.7
20260502011902 87 90 1.0 2.0 0.00 0.00 0.00 19 1002.7
20260502011358 88 54 1.0 3.0 0.00 0.00 0.00 19 1002.8
20260502010855 89 26 2.0 3.0 0.00 0.00 0.00 20 1002.7
20260502010352 89 54 1.0 2.0 0.00 0.00 0.00 20 1002.9
20260502005848 90 4 2.0 4.0 0.00 0.00 0.00 21 1002.9
20260502005346 89 15 0.0 3.0 0.00 0.00 0.00 19 1003.1
20260502004843 90 57 0.0 3.0 0.00 0.00 0.00 19 1002.8
20260502004340 92 18 2.0 2.0 0.00 0.00 0.00 20 1003.0
20260502003837 90 327 2.0 3.0 0.00 0.00 0.00 20 1002.7
20260502003334 90 0 2.0 3.0 0.00 0.00 0.00 21 1003.0
20260502002831 89 56 0.0 3.0 0.00 0.00 0.00 21 1002.8
20260502002328 89 12 1.0 2.0 0.00 0.00 0.00 20 1003.0
20260502001825 90 75 0.0 2.0 0.00 0.00 0.00 20 1003.0
20260502001323 89 22 2.0 2.0 0.00 0.00 0.00 24 1002.8
20260502000820 90 23 2.0 2.0 0.00 0.00 0.00 23 1003.1
20260502000318 91 37 2.0 5.0 0.00 0.00 0.00 22 1003.0
20260501235814 90 34 3.0 6.0 0.00 0.00 0.00 21 1002.9
20260501235310 91 292 3.0 5.0 0.00 0.00 0.00 20 1003.2
20260501234805 90 36 2.0 3.0 0.00 0.00 0.00 23 1003.0
20260501234303 90 37 2.0 3.0 0.00 0.00 0.00 20 1002.9
20260501233801 90 341 3.0 5.0 0.00 0.00 0.00 22 1003.0
20260501233258 89 48 2.0 3.0 0.00 0.00 0.00 23 1003.1
20260501232753 89 19 2.0 3.0 0.00 0.00 0.00 24 1003.0
20260501232251 89 64 3.0 3.0 0.00 0.00 0.00 22 1003.1
20260501231748 88 315 3.0 7.0 0.00 0.00 0.00 22 1003.1
20260501231247 90 343 3.0 6.0 0.00 0.00 0.00 21 1003.0
20260501230745 90 32 2.0 5.0 0.00 0.00 0.00 22 1003.1
20260501230243 91 350 2.0 4.0 0.00 0.00 0.00 20 1003.2
20260501225740 90 23 2.0 3.0 0.00 0.00 0.00 23 1003.3
20260501225237 89 30 0.0 3.0 0.00 0.00 0.00 21 1003.4
20260501224733 89 30 0.0 5.0 0.00 0.00 0.00 20 1003.5
20260501224231 88 35 1.0 3.0 0.00 0.00 0.00 23 1003.4
20260501223727 87 30 2.0 3.0 0.00 0.00 0.00 26 1003.6
20260501223224 87 74 1.0 3.0 0.00 0.00 0.00 22 1003.6
20260501222720 88 12 1.0 5.0 0.00 0.00 0.00 22 1004.0
20260501222217 88 340 1.0 4.0 0.00 0.00 0.00 21 1004.0
20260501221714 87 97 1.0 3.0 0.00 0.00 0.00 21 1004.0
20260501221211 87 105 1.0 3.0 0.00 0.00 0.00 21 1004.0
20260501220709 88 15 2.0 2.0 0.00 0.00 0.00 22 1004.0
20260501220206 87 30 2.0 2.0 0.00 0.00 0.00 22 1003.8
20260501215703 88 29 2.0 4.0 0.00 0.00 0.00 23 1004.1
20260501215158 87 98 1.0 2.0 0.00 0.00 0.00 22 1004.4
20260501214653 86 358 4.0 7.0 0.00 0.00 0.00 23 1004.4
20260501214148 86 38 2.0 3.0 0.00 0.00 0.00 26 1004.4
20260501213646 85 37 0.0 5.0 0.00 0.00 0.00 24 1004.5
20260501213141 87 16 2.0 3.0 0.00 0.00 0.00 26 1004.7
20260501212638 86 37 2.0 3.0 0.00 0.00 0.00 26 1004.6
20260501212135 85 117 2.0 2.0 0.00 0.00 0.00 24 1005.1
20260501211632 86 33 2.0 2.0 0.00 0.00 0.00 26 1005.1
20260501211130 87 0 2.0 2.0 0.00 0.00 0.00 27 1005.1
20260501210626 84 25 3.0 4.0 0.00 0.00 0.00 26 1005.1
20260501210123 86 40 2.0 2.0 0.00 0.00 0.00 26 1005.3
20260501205619 86 352 1.0 3.0 0.00 0.00 0.00 26 1005.0
20260501205117 85 191 2.0 8.0 0.00 0.00 0.00 25 1005.1
20260501204613 84 0 3.0 4.0 0.00 0.00 0.00 25 1005.2
20260501204109 84 350 2.0 3.0 0.00 0.00 0.00 28 1005.3
20260501203606 84 54 0.0 3.0 0.00 0.00 0.00 27 1005.4
20260501203103 85 90 1.0 2.0 0.00 0.00 0.00 25 1005.5
20260501202600 84 0 3.0 4.0 0.00 0.00 0.00 26 1005.7
20260501202057 84 348 3.0 6.0 0.00 0.00 0.00 27 1005.4
20260501201554 84 66 0.0 3.0 0.00 0.00 0.00 26 1005.6
20260501201050 84 19 3.0 3.0 0.00 0.00 0.00 27 1005.8
20260501200548 83 337 3.0 4.0 0.00 0.00 0.00 27 1005.8
20260501200045 83 349 2.0 3.0 0.00 0.00 0.00 30 1005.7
20260501195542 83 77 1.0 3.0 0.00 0.00 0.00 28 1005.8
20260501195038 84 39 0.0 4.0 0.00 0.00 0.00 28 1005.9
20260501194533 83 26 3.0 3.0 0.00 0.00 0.00 29 1005.9
20260501194029 82 342 2.0 3.0 0.00 0.00 0.00 30 1005.9
20260501193527 82 345 4.0 4.0 0.00 0.00 0.00 28 1006.0
20260501193026 81 33 2.0 2.0 0.00 0.00 0.00 28 1006.0
20260501192522 82 30 2.0 3.0 0.00 0.00 0.00 30 1006.1
20260501192020 83 90 1.0 5.0 0.00 0.00 0.00 28 1006.3
20260501191516 82 32 0.0 2.0 0.00 0.00 0.00 30 1006.3
20260501191014 82 16 2.0 2.0 0.00 0.00 0.00 30 1006.5
20260501190509 81 40 2.0 3.0 0.00 0.00 0.00 32 1006.3
20260501190005 81 17 4.0 4.0 0.00 0.00 0.00 31 1006.4
20260501185501 81 23 1.0 3.0 0.00 0.00 0.00 31 1006.6
20260501184957 82 314 4.0 5.0 0.00 0.00 0.00 30 1006.4
20260501184453 81 105 2.0 3.0 0.00 0.00 0.00 31 1006.6
20260501183948 81 330 4.0 4.0 0.00 0.00 0.00 31 1006.7
20260501183446 82 70 0.0 3.0 0.00 0.00 0.00 32 1006.9
20260501182942 80 56 0.0 3.0 0.00 0.00 0.00 34 1007.0
20260501182439 80 19 2.0 3.0 0.00 0.00 0.00 33 1006.9
20260501181935 80 20 1.0 3.0 0.00 0.00 0.00 33 1006.9
20260501181433 80 63 2.0 2.0 0.00 0.00 0.00 33 1007.0
20260501180930 80 20 0.0 4.0 0.00 0.00 0.00 33 1006.9
20260501180427 80 15 2.0 2.0 0.00 0.00 0.00 35 1007.1
20260501175923 81 24 2.0 5.0 0.00 0.00 0.00 32 1007.3
20260501175421 81 21 2.0 2.0 0.00 0.00 0.00 33 1007.3
20260501174917 80 26 2.0 2.0 0.00 0.00 0.00 33 1007.2
20260501174415 80 60 2.0 3.0 0.00 0.00 0.00 34 1007.6
20260501173912 80 41 2.0 2.0 0.00 0.00 0.00 33 1007.5
20260501173410 80 56 2.0 4.0 0.00 0.00 0.00 32 1007.7
20260501172905 78 14 3.0 5.0 0.00 0.00 0.00 33 1007.2
20260501172400 79 99 0.0 2.0 0.00 0.00 0.00 33 1007.7
20260501171856 79 321 3.0 4.0 0.00 0.00 0.00 34 1007.6
20260501171353 79 18 1.0 3.0 0.00 0.00 0.00 34 1007.5
20260501170849 78 69 0.0 2.0 0.00 0.00 0.00 34 1007.8
20260501170346 78 0 2.0 5.0 0.00 0.00 0.00 35 1007.6
20260501165844 77 48 2.0 3.0 0.00 0.00 0.00 36 1007.6
20260501165342 76 19 2.0 2.0 0.00 0.00 0.00 36 1007.6
20260501164839 75 40 0.0 2.0 0.00 0.00 0.00 38 1007.7
20260501164337 75 53 2.0 2.0 0.00 0.00 0.00 37 1007.6
20260501163832 76 340 3.0 4.0 0.00 0.00 0.00 36 1007.7
20260501163329 75 54 1.0 2.0 0.00 0.00 0.00 37 1007.8
20260501162826 75 23 2.0 2.0 0.00 0.00 0.00 38 1007.7
20260501162323 75 16 2.0 2.0 0.00 0.00 0.00 39 1007.5
20260501161820 75 81 0.0 2.0 0.00 0.00 0.00 38 1007.5
20260501161317 74 19 2.0 5.0 0.00 0.00 0.00 38 1007.8
20260501160813 74 35 1.0 2.0 0.00 0.00 0.00 39 1007.5
20260501160310 74 66 1.0 3.0 0.00 0.00 0.00 38 1007.5
20260501155808 73 66 1.0 2.0 0.00 0.00 0.00 39 1007.6
20260501155306 74 23 1.0 2.0 0.00 0.00 0.00 41 1007.3
20260501154801 73 54 1.0 3.0 0.00 0.00 0.00 40 1007.3
20260501154258 73 69 0.0 3.0 0.00 0.00 0.00 40 1007.5
20260501153755 72 66 1.0 3.0 0.00 0.00 0.00 40 1007.2
20260501153253 72 69 0.0 2.0 0.00 0.00 0.00 41 1006.9
20260501152749 72 90 1.0 2.0 0.00 0.00 0.00 42 1007.5
20260501152246 71 48 0.0 2.0 0.00 0.00 0.00 43 1007.0
20260501151743 71 18 1.0 2.0 0.00 0.00 0.00 44 1007.1
20260501151239 71 354 0.0 2.0 0.00 0.00 0.00 42 1007.0
20260501150730 71 75 1.0 2.0 0.00 0.00 0.00 43 1006.9
20260501150226 71 18 0.0 2.0 0.00 0.00 0.00 44 1006.6
20260501145723 70 0 1.0 2.0 0.00 0.00 0.00 45 1006.7
20260501145220 70 60 1.0 2.0 0.00 0.00 0.00 45 1006.8
20260501144716 70 48 2.0 2.0 0.00 0.00 0.00 45 1006.8
20260501144212 70 23 0.0 2.0 0.00 0.00 0.00 46 1006.7
20260501143708 69 45 0.0 2.0 0.00 0.00 0.00 47 1006.8
20260501143206 69 23 0.0 1.0 0.00 0.00 0.00 48 1006.8
20260501142703 69 26 0.0 2.0 0.00 0.00 0.00 47 1006.7